When you browse on this site, cookies collect data to enhance your experience and personalize the content and advertising you see.
Visit our Privacy Policy to learn more. By continuing to use the site, you agree to this use of cookies and data.
  • In Hungary
  • List of Countries
  • For 7 days
  • Water Temperature
  • Satellite Maps
  • Weather Map
  • News
  • Weather Widgets
  • user-avatar
    Login

    Hourly Weather Nikita

    Today, 18 July, Thursday

    Time Temperature Precipitation Wind Pressure Humidity
    00:00 +20°C° 0 mm 1 mps 737 mmHg 80%
    01:00 +18°C° 0 mm 2 mps 737 mmHg 80%
    02:00 +18°C° 0 mm 2 mps 737 mmHg 80%
    03:00 +18°C° 0 mm 2 mps 737 mmHg 78%
    04:00 +19°C° 0 mm 2 mps 737 mmHg 76%
    05:00 +19°C° 0 mm 2 mps 737 mmHg 74%
    06:00 +21°C° 0 mm 2 mps 737 mmHg 65%
    07:00 +24°C° 0 mm 1 mps 737 mmHg 57%
    08:00 +26°C° 0 mm 1 mps 738 mmHg 48%
    09:00 +27°C° 0 mm 1 mps 738 mmHg 48%
    10:00 +27°C° 0 mm 2 mps 738 mmHg 47%
    11:00 +27°C° 0 mm 2 mps 739 mmHg 47%
    12:00 +27°C° 0 mm 2 mps 739 mmHg 45%
    13:00 +28°C° 0 mm 3 mps 739 mmHg 44%
    14:00 +28°C° 0 mm 3 mps 739 mmHg 43%
    15:00 +28°C° 0 mm 3 mps 739 mmHg 47%
    16:00 +27°C° 0 mm 3 mps 739 mmHg 50%
    17:00 +26°C° 0 mm 3 mps 739 mmHg 54%
    18:00 +24°C° 0 mm 3 mps 739 mmHg 58%
    19:00 +22°C° 0 mm 3 mps 740 mmHg 62%
    20:00 +20°C° 0 mm 3 mps 740 mmHg 66%
    21:00 +20°C° 0 mm 3 mps 740 mmHg 67%
    22:00 +20°C° 0 mm 3 mps 740 mmHg 69%
    23:00 +19°C° 0 mm 3 mps 741 mmHg 71%

    Tomorrow, 19 July, Friday

    Time Temperature Precipitation Wind Pressure Humidity
    00:00 +19°C° 0 mm 3 mps 741 mmHg 70%
    01:00 +19°C° 0 mm 3 mps 741 mmHg 69%
    02:00 +19°C° 0 mm 3 mps 741 mmHg 68%
    03:00 +19°C° 0 mm 3 mps 741 mmHg 67%
    04:00 +19°C° 0 mm 3 mps 741 mmHg 65%
    05:00 +19°C° 0 mm 3 mps 742 mmHg 64%
    06:00 +23°C° 0 mm 2 mps 742 mmHg 57%
    07:00 +25°C° 0 mm 1 mps 742 mmHg 51%
    08:00 +25°C° 0 mm 0 mps 743 mmHg 44%
    09:00 +27°C° 0 mm 1 mps 743 mmHg 45%
    10:00 +27°C° 0 mm 1 mps 743 mmHg 45%
    11:00 +27°C° 0 mm 2 mps 743 mmHg 46%
    12:00 +27°C° 0 mm 2 mps 743 mmHg 46%
    13:00 +27°C° 0 mm 2 mps 743 mmHg 47%
    14:00 +27°C° 0 mm 2 mps 743 mmHg 48%
    15:00 +27°C° 0 mm 2 mps 743 mmHg 48%
    16:00 +27°C° 0 mm 2 mps 743 mmHg 48%
    17:00 +27°C° 0 mm 3 mps 743 mmHg 48%
    18:00 +25°C° 0 mm 2 mps 743 mmHg 54%
    19:00 +23°C° 0 mm 2 mps 744 mmHg 60%
    20:00 +21°C° 0 mm 1 mps 744 mmHg 66%
    21:00 +21°C° 0 mm 1 mps 744 mmHg 64%
    22:00 +21°C° 0 mm 1 mps 744 mmHg 62%
    23:00 +21°C° 0 mm 1 mps 744 mmHg 60%

    Day after tomorrow, 20 July, Saturday

    Time Temperature Precipitation Wind Pressure Humidity
    00:00 +21°C° 0 mm 1 mps 744 mmHg 61%
    01:00 +21°C° 0 mm 1 mps 744 mmHg 61%
    02:00 +20°C° 0 mm 1 mps 744 mmHg 62%
    03:00 +21°C° 0 mm 1 mps 744 mmHg 63%
    04:00 +21°C° 0 mm 1 mps 744 mmHg 63%
    05:00 +21°C° 0 mm 1 mps 744 mmHg 63%
    06:00 +23°C° 0 mm 2 mps 744 mmHg 56%
    07:00 +25°C° 0 mm 2 mps 745 mmHg 49%
    08:00 +27°C° 0 mm 2 mps 745 mmHg 42%
    09:00 +28°C° 0 mm 2 mps 745 mmHg 41%
    10:00 +29°C° 0 mm 2 mps 745 mmHg 39%
    11:00 +30°C° 0 mm 2 mps 745 mmHg 37%
    12:00 +30°C° 0 mm 2 mps 745 mmHg 37%
    13:00 +30°C° 0 mm 2 mps 745 mmHg 37%
    14:00 +30°C° 0 mm 1 mps 745 mmHg 37%
    15:00 +29°C° 0 mm 1 mps 745 mmHg 40%
    16:00 +29°C° 0 mm 1 mps 744 mmHg 44%
    17:00 +28°C° 0 mm 1 mps 744 mmHg 47%
    18:00 +26°C° 0 mm 1 mps 744 mmHg 54%
    19:00 +24°C° 0 mm 1 mps 744 mmHg 61%
    20:00 +22°C° 0 mm 1 mps 745 mmHg 69%
    21:00 +21°C° 0 mm 2 mps 745 mmHg 66%
    22:00 +21°C° 0 mm 2 mps 745 mmHg 63%
    23:00 +21°C° 0 mm 3 mps 745 mmHg 60%

    21 July, Sunday

    Time Temperature Precipitation Wind Pressure Humidity
    00:00 +20°C° 0 mm 3 mps 744 mmHg 59%
    01:00 +20°C° 0 mm 3 mps 744 mmHg 57%
    02:00 +20°C° 0 mm 3 mps 744 mmHg 56%
    03:00 +20°C° 0 mm 3 mps 744 mmHg 56%
    04:00 +20°C° 0 mm 3 mps 744 mmHg 57%
    05:00 +20°C° 0 mm 4 mps 744 mmHg 57%
    06:00 +22°C° 0 mm 3 mps 744 mmHg 52%
    07:00 +25°C° 0 mm 3 mps 744 mmHg 47%
    08:00 +27°C° 0 mm 3 mps 744 mmHg 43%
    09:00 +28°C° 0 mm 3 mps 744 mmHg 40%
    10:00 +29°C° 0 mm 3 mps 744 mmHg 38%
    11:00 +30°C° 0 mm 3 mps 744 mmHg 35%
    12:00 +31°C° 0 mm 3 mps 744 mmHg 34%
    13:00 +31°C° 0 mm 3 mps 744 mmHg 33%
    14:00 +32°C° 0 mm 2 mps 744 mmHg 32%
    15:00 +31°C° 0 mm 2 mps 744 mmHg 35%
    16:00 +30°C° 0 mm 2 mps 744 mmHg 38%
    17:00 +29°C° 0 mm 2 mps 744 mmHg 41%
    18:00 +27°C° 0 mm 2 mps 744 mmHg 47%
    19:00 +25°C° 0 mm 1 mps 744 mmHg 53%
    20:00 +23°C° 0 mm 1 mps 744 mmHg 59%
    21:00 +23°C° 0 mm 1 mps 744 mmHg 55%
    22:00 +23°C° 0 mm 2 mps 744 mmHg 52%
    23:00 +23°C° 0 mm 2 mps 744 mmHg 49%

    22 July, Monday

    Time Temperature Precipitation Wind Pressure Humidity
    00:00 +23°C° 0 mm 2 mps 744 mmHg 49%
    01:00 +21°C° 0 mm 2 mps 744 mmHg 50%
    02:00 +21°C° 0 mm 2 mps 744 mmHg 51%
    03:00 +21°C° 0 mm 2 mps 744 mmHg 53%
    04:00 +21°C° 0 mm 2 mps 744 mmHg 54%
    05:00 +21°C° 0 mm 2 mps 744 mmHg 56%
    06:00 +24°C° 0 mm 2 mps 744 mmHg 52%
    07:00 +27°C° 0 mm 2 mps 744 mmHg 47%
    08:00 +29°C° 0 mm 2 mps 744 mmHg 43%
    09:00 +30°C° 0 mm 1 mps 744 mmHg 41%
    10:00 +30°C° 0 mm 1 mps 744 mmHg 39%
    11:00 +31°C° 0 mm 1 mps 744 mmHg 37%
    12:00 +31°C° 0 mm 2 mps 744 mmHg 38%
    13:00 +31°C° 0 mm 2 mps 744 mmHg 38%
    14:00 +31°C° 0 mm 3 mps 744 mmHg 39%
    15:00 +30°C° 0 mm 3 mps 743 mmHg 43%
    16:00 +30°C° 0 mm 3 mps 743 mmHg 47%
    17:00 +29°C° 0 mm 3 mps 743 mmHg 50%
    18:00 +27°C° 0 mm 3 mps 743 mmHg 56%
    19:00 +25°C° 0 mm 2 mps 743 mmHg 62%
    20:00 +24°C° 0 mm 2 mps 743 mmHg 67%
    21:00 +23°C° 0 mm 2 mps 743 mmHg 67%
    22:00 +23°C° 0 mm 2 mps 742 mmHg 68%
    23:00 +23°C° 0 mm 2 mps 742 mmHg 68%

    23 July, Tuesday

    Time Temperature Precipitation Wind Pressure Humidity
    00:00 +23°C° 0 mm 2 mps 742 mmHg 68%
    01:00 +21°C° 0 mm 2 mps 742 mmHg 68%
    02:00 +21°C° 0 mm 2 mps 742 mmHg 68%
    03:00 +21°C° 0 mm 2 mps 741 mmHg 67%
    04:00 +21°C° 0 mm 2 mps 741 mmHg 67%
    05:00 +21°C° 0 mm 3 mps 741 mmHg 66%
    06:00 +25°C° 0 mm 2 mps 741 mmHg 58%
    07:00 +27°C° 0 mm 1 mps 741 mmHg 51%
    08:00 +29°C° 0 mm 1 mps 741 mmHg 43%
    09:00 +30°C° 0 mm 1 mps 741 mmHg 41%
    10:00 +31°C° 0 mm 2 mps 741 mmHg 40%
    11:00 +31°C° 0 mm 2 mps 741 mmHg 38%
    12:00 +31°C° 0 mm 2 mps 741 mmHg 40%
    13:00 +31°C° 0 mm 3 mps 741 mmHg 42%
    14:00 +30°C° 0 mm 3 mps 740 mmHg 43%
    15:00 +30°C° 0 mm 3 mps 740 mmHg 45%
    16:00 +29°C° 0 mm 3 mps 740 mmHg 46%
    17:00 +29°C° 0 mm 3 mps 740 mmHg 47%
    18:00 +27°C° 0 mm 3 mps 740 mmHg 54%
    19:00 +25°C° 0 mm 3 mps 740 mmHg 60%
    20:00 +22°C° 0 mm 3 mps 740 mmHg 67%
    21:00 +23°C° 0 mm 2 mps 739 mmHg 65%
    22:00 +23°C° 0 mm 2 mps 739 mmHg 63%
    23:00 +23°C° 0 mm 2 mps 739 mmHg 61%
    Show more